weather.gov     
National Weather Service

Regional Weather Roundup
NWS Homepage
This page is being discontinued on March 12, 2014.
The same data is available at this site. Please update your bookmarks.
Thank you, and we apologize for the inconvenience.
Please send an email to SR-SRH.Webmaster@noaa.gov with any concerns.


Current Version
Previous Version:    01  02  03  04  05  06  07  08  09  10  11  12  13  14  15  16  17  18  19  20  21  22  23  24  25  26  27  28  29  30  
   31  32  33  34  35  36  37  38  39  40  41  42  43  44  45  46  47  48  49  50  
[Printable]
861
ASUS44 KFWD 310415
RWRTX
NORTH TEXAS HOURLY WEATHER ROUNDUP
NATIONAL WEATHER SERVICE FORT WORTH TX
1100 PM CDT THU OCT 30 2014

NOTE: "FAIR" INDICATES FEW OR NO CLOUDS BELOW 12,000 FEET WITH NO
SIGNIFICANT WEATHER AND/OR OBSTRUCTIONS TO VISIBILITY.

TXZ118-119-310500-
DALLAS/FORT WORTH METROPLEX

CITY           SKY/WX    TMP DP  RH WIND       PRES   REMARKS
DFW AIRPORT    PTCLDY    64  57  78 NW12      30.15R
DALLAS LOVE    CLEAR     63  58  83 N5        30.15R
FTW MEACHAM    CLEAR     66  55  67 N8        30.16R
DAL-EXECUTIVE  CLEAR     63  55  75 NW7       30.14R
FTW-ALLIANCE   PTCLDY    62  53  72 N8        30.17R
FTW-NAS-JRB    PTCLDY    68  58  70 NW8       30.21R
FTW-SPINKS     PTCLDY    61  56  84 CALM      30.17R
ARLINGTON      CLEAR     60  55  83 NW3       30.16R
GRAND PRAIRIE  CLEAR     65  57  76 CALM      30.16R
ADDISON        CLEAR     65  62  87 NW5       30.17R
MESQUITE       CLEAR     61  59  93 CALM      30.14R
LANCASTER      CLEAR     62  53  71 CALM      30.15R
$$

TXZ091>094-102>105-117-120-121-131>134-310500-
NORTH CENTRAL TEXAS

CITY           SKY/WX    TMP DP  RH WIND       PRES   REMARKS
SHRMAN/DENISON CLEAR     58  47  67 N3        30.18R
GAINESVILLE    CLEAR     56  42  61 NW7       30.20R
BOWIE          CLEAR     58  40  50 N5        30.20R
BRIDGEPORT     CLEAR     62  45  53 N3        30.21R
DECATUR        CLEAR     61  42  49 N5        30.19R
DENTON         CLEAR     58  52  80 NW3       30.17R
MCKINNEY       CLEAR     58  53  84 NW6       30.15R
GREENVILLE     CLEAR     59  50  72 CALM      30.14R
ROCKWALL       CLEAR     60  57  88 NW3       30.14R
TERRELL        CLEAR     60  56  86 CALM      30.14R
WAXAHACHIE     PTCLDY    60  55  83 CALM      30.16R
CLEBURNE       CLEAR     63  63 100 CALM      30.17R
GRANBURY       PTCLDY    65  63  93 W3        30.19R FOG
$$

TXZ083>090-098>101-113>116-127>130-139>142-154-155-310500-
WESTERN NORTH TEXAS

CITY           SKY/WX    TMP DP  RH WIND       PRES   REMARKS
WICHITA FALLS  CLEAR     57  37  47 N8        30.21R
WF-KICKAPOO    CLEAR     60  36  39 N6        30.23R
VERNON         CLEAR     59  36  41 N7        30.25R
ABILENE        MOCLDY    70  52  52 NE13      30.23R
ABILENE-DYESS  MOCLDY    68  56  64 NE12      30.22R
BRECKENRIDGE   CLOUDY    69  44  40 NE10      30.21R
GRAHAM         CLEAR     64  41  43 NE6       30.20R
MINERAL WELLS  MOCLDY    63  61  93 CALM      30.18R
STEPHENVILLE   PTCLDY    65  61  87 N3        30.21R
COMANCHE       CLOUDY    66  66 100 N5        30.19R
BROWNWOOD      CLOUDY    68  63  83 NE5       30.18R
COLEMAN        MOCLDY    69  62  77 NE10      30.20R
BRADY          LGT RAIN  70  61  73 N12       30.17R
$$

TXZ143>147-156>162-174-175-310500-
CENTRAL TEXAS

CITY           SKY/WX    TMP DP  RH WIND       PRES   REMARKS
WACO           CLOUDY    65  56  72 N3        30.13R
WACO-TSTC      MOCLDY    64  57  77 CALM        N/A
WACO-MCGREGOR  MOCLDY    66  52  59 N3        30.15R
HILLSBORO      MOCLDY    66  56  70 N6        30.15R
CORSICANA      CLOUDY    63  52  67 CALM      30.14R
MEXIA          MOCLDY    61  56  81 NE3       30.12R
HEARNE         PTCLDY    62  55  78 CALM      30.12S
CAMERON        MOCLDY    65  54  69 CALM      30.12R
TEMPLE         MOCLDY    66  52  59 E6        30.12R
KILLEEN        CLOUDY    69  57  65 E3        30.14R
KILLEEN-SKYLRK MOCLDY    66  54  63 CALM      30.11R
GATESVILLE     PTCLDY    66  55  68 CALM      30.17R
HAMILTON       CLOUDY    66  59  79 N5        30.18R
LAMPASAS       MOCLDY    71  61  71 CALM      30.13R
$$

TXZ095>097-106>112-122>126-135>138-148>153-164>167-310500-
EAST TEXAS

CITY           SKY/WX    TMP DP  RH WIND       PRES   REMARKS
PARIS          CLEAR     59  45  58 CALM      30.13R
SULPHUR SPRNGS CLEAR     61  51  70 W6        30.15R
MOUNT PLEASANT CLEAR     54  53  95 CALM      30.12S
MINEOLA        CLEAR     57  52  82 CALM      30.13R
TYLER          CLEAR     61  52  72 CALM      30.11R
LONGVIEW       CLEAR     54  50  86 CALM      30.10R
MARSHALL       CLEAR     53  51  90 CALM      30.12R
ATHENS         PTCLDY    57  54  88 CALM      30.12R
PALESTINE      PTCLDY    62  56  82 CALM      30.13R
JACKSONVILLE   MOCLDY    66  45  45 CALM      30.14R
HENDERSON      CLEAR     52  51  96 CALM      30.12S
NACOGDOCHES    PTCLDY    54  48  82 CALM      30.12R
LUFKIN         CLEAR     58  51  78 NW3       30.11R
$$

SUPPLEMENTAL OBSERVATIONS (CENTRAL)

CITY           SKY/WX    TMP DP  RH WIND       PRES   REMARKS
LAKE TEXOMA      N/A     68  46  45 N7          N/A
CADDO GRASSLND   N/A     55  46  71 N1          N/A
PAT MAYSE LAKE   N/A     57  48  72 N3          N/A
GREENVILLE       N/A     59  50  72 NW5         N/A
CEDAR HILL       N/A     61  55  82 SE1         N/A
ATHENS           N/A     57  54  88 NW1         N/A
PALESTINE        N/A     57  52  82 CALM        N/A
LAKE LIMESTONE   N/A     63  55  77 NE1         N/A
MCGREGOR         N/A     66  54  63 N2          N/A
TEMPLE           N/A     66  54  63 E2          N/A
$$

SUPPLEMENTAL OBSERVATIONS (WEST)

CITY           SKY/WX    TMP DP  RH WIND       PRES   REMARKS
MILLERS CREEK    N/A     59  36  41 NE3         N/A
POSSUM KINGDOM   N/A     66  43  42 N6          N/A
LBJ GRASSLAND    N/A     61  43  51 N6          N/A
GRANBURY         N/A     63  59  88 NW3         N/A
COMANCHE         N/A     66  63  88 N3          N/A
HAMBY            N/A     66  46  48 NE8         N/A
IVIE RESERVOIR   N/A     72  59  64 NE9         N/A
COLORADO BEND    N/A     66  57  72 CALM        N/A
$$

SUPPLEMENTAL OBSERVATIONS (EAST)

CITY           SKY/WX    TMP DP  RH WIND       PRES   REMARKS
TEXARKANA        N/A     46  43  87 CALM        N/A
LINDEN           N/A     55  48  76 CALM        N/A
CADDO LAKE       N/A     48  46  93 CALM        N/A
LUFKIN           N/A     55  52  88 MISG        N/A
N SABINE NF      N/A     50  46  87 MISG        N/A
$$

SUPPLEMENTAL OBSERVATIONS ARE A COLLECTION OF AUTOMATED INSTRUMENTS
THAT ARE MAINTAINED BY A VARIETY OF FEDERAL AND STATE AGENCIES.
CERTAIN ELEMENTS...SUCH AS HUMIDITY VALUES AND SUSTAINED WIND
SPEEDS...MAY BE APPROXIMATED.





U.S. Dept. of Commerce
NOAA National Weather Service
1325 East West Highway
Silver Spring, MD 20910
E-mail: w-nws.webmaster@noaa.gov
Page last modified: May 16, 2007
NATIONAL WEATHER SERVICE: for Safety, for Work, for Fun - FOR LIFE